This is the latest recevied weather packets stored in our database for station/object KG0HG. If no packets are shown the sender has not sent any weather packets the latest 10 day(s).
| Time | Temp. | Humidity | Pressure | Rain* | Wind** | Luminosity | Snow |
|---|---|---|---|---|---|---|---|
| 1777902496 | 18.89° C | 60% | 1004.3 hPa | 0 mm | - | 47 W/m² | - |
| 1777902193 | 18.89° C | 60% | 1004.4 hPa | 0 mm | - | 52 W/m² | - |
| 1777901891 | 18.33° C | 62% | 1004.3 hPa | 0 mm | - | 92 W/m² | - |
| 1777901589 | 18.33° C | 63% | 1004.3 hPa | 0 mm | - | 35 W/m² | - |
| 1777901286 | 18.33° C | 63% | 1004.2 hPa | 0 mm | - | 22 W/m² | - |
| 1777900983 | 17.78° C | 64% | 1004.3 hPa | 0 mm | - | 28 W/m² | - |
| 1777900681 | 17.78° C | 65% | 1004.3 hPa | 0 mm | - | 50 W/m² | - |
| 1777900377 | 17.22° C | 64% | 1004.2 hPa | 0 mm | - | 38 W/m² | - |
| 1777900074 | 17.22° C | 67% | 1004.3 hPa | 0 mm | - | 26 W/m² | - |
| 1777899770 | 16.67° C | 67% | 1004.3 hPa | 0 mm | - | 23 W/m² | - |
| 1777899467 | 16.67° C | 68% | 1004.3 hPa | 0 mm | - | 22 W/m² | - |
| 1777899165 | 16.67° C | 69% | 1004.2 hPa | 0 mm | - | 19 W/m² | - |
| 1777898862 | 16.11° C | 69% | 1004.3 hPa | 0 mm | - | 18 W/m² | - |
| 1777898560 | 16.11° C | 70% | 1004.3 hPa | 0 mm | - | 19 W/m² | - |
| 1777898257 | 15.56° C | 71% | 1004.4 hPa | 0 mm | - | 19 W/m² | - |
| 1777897954 | 15° C | 72% | 1004.6 hPa | 0 mm | - | 18 W/m² | - |
| 1777897650 | 15° C | 73% | 1004.5 hPa | 0 mm | - | 12 W/m² | - |
| 1777897347 | 15° C | 72% | 1004.6 hPa | 0 mm | - | 11 W/m² | - |
| 1777897042 | 15° C | 73% | 1004.4 hPa | 0 mm | - | 9 W/m² | - |
| 1777896739 | 15° C | 73% | 1004.4 hPa | 0 mm | - | 9 W/m² | - |
| 1777896437 | 15° C | 74% | 1004.5 hPa | 0 mm | - | 9 W/m² | - |
| 1777896134 | 15° C | 75% | 1004.4 hPa | 0 mm | - | 8 W/m² | - |
| 1777895832 | 15° C | 75% | 1004.3 hPa | 0 mm | - | 8 W/m² | - |
| 1777895529 | 14.44° C | 76% | 1004 hPa | 0 mm | - | 7 W/m² | - |
| 1777895227 | 13.89° C | 79% | 1004.2 hPa | 0 mm | - | 5 W/m² | - |
* Rain latest hour (hover to see other rain measurements)
** Current wind speed in m/s (hover to see current wind gust speed)